Weather History for Philip, SD

Change the Weather History Date:

Saturday, March 30, 2013

  Actual Average Record
Temperature  
Mean Temperature 50 °F 40 °F  
Max Temperature 66 °F 54 °F 85 °F (1978)
Min Temperature 34 °F 27 °F 3 °F (1975)
Degree Days  
Heating Degree Days 15 25  
Month to date heating degree days 927 913  
Since 1 July heating degree days 5953 6278  
Cooling Degree Days 0 0  
Month to date cooling degree days 0 0  
Year to date cooling degree days 0 0  
Moisture  
Dew Point 30 °F    
Average Humidity 51    
Maximum Humidity 82    
Minimum Humidity 20    
Precipitation  
Precipitation 0.00 in 0.05 in 0.15 in (2008)
Month to date precipitation 0.40 1.23  
Year to date precipitation 1.22 2.01  
Sea Level Pressure  
Sea Level Pressure 30.02 in    
Wind  
Wind Speed 13 mph (WNW)    
Max Wind Speed 36 mph    
Max Gust Speed 43 mph    
Visibility 10 miles    
Events      
T = Trace of Precipitation, MM = Missing Value Source: NWS Daily Summary

Daily Weather History Graph

Daily Weather History Graph

Search for Another Location

Airport:

Trip Planner

Search our weather history database for the weather conditions in past years. The results will help you decide how hot, cold, wet, or windy it might be!

Date:

Astronomy

Mar. 30, 2013 Rise Set
Actual Time 6:30 AM MDT 7:11 PM MDT
Civil Twilight 6:01 AM MDT 7:40 PM MDT
Nautical Twilight 5:27 AM MDT 8:15 PM MDT
Astronomical Twilight 4:51 AM MDT 8:51 PM MDT
Moon 11:29 PM MDT 8:19 AM MDT
Length of Visible Light 13h 38m
Length of Day
12h 40m
Waning Gibbous, 86% of the Moon is Illuminated
Mar 30
Waning Gibbous
Apr 2
Last Quarter
Apr 10
New
Apr 18
First Quarter
Apr 25
Full

Hourly Weather History & Observations

Time (MDT) Temp. Windchill Dew Point Humidity Pressure Visibility Wind Dir Wind Speed Gust Speed Precip Events Conditions
12:55 AM 42.1 °F 39.2 °F 30.0 °F 62% 29.99 in 10.0 mi West 4.6 mph - N/A   Clear
1:55 AM 37.0 °F 34.5 °F 30.0 °F 76% 30.01 in 10.0 mi West 3.5 mph - N/A   Scattered Clouds
2:55 AM 37.0 °F 29.8 °F 30.0 °F 76% 30.03 in 10.0 mi West 10.4 mph - N/A   Partly Cloudy
3:55 AM 37.0 °F 31.0 °F 32.0 °F 82% 30.03 in 10.0 mi West 8.1 mph - N/A   Mostly Cloudy
4:55 AM 39.9 °F 36.7 °F 34.0 °F 79% 30.02 in 10.0 mi SSW 4.6 mph - N/A   Overcast
5:55 AM 41.0 °F 36.4 °F 34.0 °F 76% 30.04 in 10.0 mi West 6.9 mph - N/A   Clear
6:55 AM 39.0 °F 35.7 °F 33.1 °F 79% 30.04 in 10.0 mi West 4.6 mph - N/A   Partly Cloudy
7:55 AM 43.0 °F 38.2 °F 34.0 °F 71% 30.04 in 10.0 mi West 8.1 mph - N/A   Clear
8:55 AM 51.1 °F - 36.0 °F 56% 30.03 in 10.0 mi West 10.4 mph - N/A   Clear
9:55 AM 57.9 °F - 36.0 °F 44% 30.01 in 10.0 mi WNW 18.4 mph - N/A   Clear
10:55 AM 61.0 °F - 33.1 °F 35% 30.01 in 10.0 mi NW 17.3 mph 25.3 mph N/A   Clear
11:55 AM 63.0 °F - 30.0 °F 29% 30.01 in 10.0 mi North 18.4 mph 21.9 mph N/A   Partly Cloudy
12:55 PM 61.0 °F - 27.0 °F 27% 30.00 in 10.0 mi NNW 18.4 mph 24.2 mph N/A   Mostly Cloudy
1:55 PM 64.9 °F - 24.1 °F 21% 29.99 in 10.0 mi North 19.6 mph 29.9 mph N/A   Mostly Cloudy
2:55 PM 62.1 °F - 21.9 °F 21% 29.98 in 10.0 mi North 16.1 mph 24.2 mph N/A   Overcast
3:55 PM 61.0 °F - 19.9 °F 21% 29.97 in 10.0 mi North 15.0 mph 25.3 mph N/A   Mostly Cloudy
4:55 PM 60.1 °F - 19.0 °F 20% 29.97 in 10.0 mi NW 15.0 mph 24.2 mph N/A   Mostly Cloudy
5:55 PM 59.0 °F - 24.1 °F 26% 29.98 in 10.0 mi WNW 18.4 mph 26.5 mph N/A   Mostly Cloudy
6:55 PM 55.9 °F - 21.9 °F 27% 30.00 in 10.0 mi NW 17.3 mph 21.9 mph N/A   Mostly Cloudy
7:55 PM 52.0 °F - 34.0 °F 50% 30.03 in 10.0 mi NW 26.5 mph 34.5 mph N/A   Overcast
8:55 PM 46.9 °F - 34.0 °F 61% 30.06 in 10.0 mi WNW 12.7 mph - N/A   Mostly Cloudy
9:55 PM 46.9 °F - 35.1 °F 63% 30.06 in 10.0 mi NNW 17.3 mph - N/A   Scattered Clouds
10:55 PM 42.1 °F 36.1 °F 30.0 °F 62% 30.10 in 10.0 mi NNW 10.4 mph - N/A   Clear
11:55 PM 36.0 °F 30.3 °F 28.9 °F 76% 30.11 in 10.0 mi West 6.9 mph - N/A   Clear